Location: St. Louis
(38.6270°N, 90.1994°W)
Time: 02:36:27
(UTC-06:00)

Transit 4A - Pass Details

Date: 08 December 2021
Orbit: 863 x 981 km, 66.8° (Epoch: 24 January)

Event Time Altitude Azimuth Distance (km) Brightness Sun altitude
Rises 19:51:39 0° 261° (W) 3,472 11.9 -36.8°
Reaches altitude 10° 19:55:16 10° 284° (WNW) 2,557 10.9 -37.5°
Maximum altitude 19:58:38 15° 319° (NW) 2,220 10.2 -38.1°
Enters shadow 19:59:48 15° 332° (NNW) 2,273 10.1 -38.3°
Drops below altitude 10° 20:02:04 10° 354° (N) 2,607 - -38.8°
Sets 20:05:51 0° 17° (NNE) 3,580 - -39.5°
